Location: Beetenbrück
(52.8113°N, 9.5946°E)
Time: 16:28:45
(UTC+00:00)

USA 238 - Pass Details

Date: 14 April 2026
Orbit: 883 x 1328 km, 63.4° (Epoch: 10 January)

Event Time Altitude Azimuth Distance (km) Brightness Sun altitude
Rises 19:04:55 0° 310° (NW) 3,871 8.5 -7.2°
Reaches altitude 10° 19:07:29 10° 313° (NW) 2,975 7.5 -7.6°
Maximum altitude 19:14:39 70° 38° (NE) 1,266 4.1 -8.5°
Enters shadow 19:22:14 11° 121° (ESE) 3,157 5.5 -9.5°
